This is the latest recevied weather packets stored in our database for station/object KA3WVU. If no packets are shown the sender has not sent any weather packets the latest 10 day(s).
| Time | Temp. | Humidity | Pressure | Rain* | Wind** | Luminosity | Snow |
|---|---|---|---|---|---|---|---|
| 1777827351 | 9.44° C | 47% | 1013.9 hPa | 0 mm | - | 664 W/m² | - |
| 1777827047 | 9.44° C | 44% | 1014.1 hPa | 0 mm | - | 211 W/m² | - |
| 1777826744 | 10° C | 42% | 1014.1 hPa | 0 mm | - | 729 W/m² | - |
| 1777826441 | 9.44° C | 46% | 1013.8 hPa | 0 mm | - | 476 W/m² | - |
| 1777826138 | 8.89° C | 49% | 1014 hPa | 0 mm | - | 188 W/m² | - |
| 1777825835 | 9.44° C | 45% | 1014 hPa | 0 mm | - | 254 W/m² | - |
| 1777825532 | 8.89° C | 48% | 1014.2 hPa | 0 mm | - | 216 W/m² | - |
| 1777825230 | 8.33° C | 47% | 1014.2 hPa | 0 mm | - | 281 W/m² | - |
| 1777824926 | 8.33° C | 49% | 1014.1 hPa | 0 mm | - | 324 W/m² | - |
| 1777824622 | 8.89° C | 45% | 1014.2 hPa | 0 mm | - | 138 W/m² | - |
| 1777824320 | 8.33° C | 48% | 1014.6 hPa | 0 mm | - | 272 W/m² | - |
| 1777824015 | 8.89° C | 49% | 1014.1 hPa | 0 mm | - | 118 W/m² | - |
| 1777823712 | 7.78° C | 49% | 1014.4 hPa | 0 mm | - | 429 W/m² | - |
| 1777823409 | 7.78° C | 52% | 1014.2 hPa | 0 mm | - | 466 W/m² | - |
| 1777823107 | 7.78° C | 52% | 1014.4 hPa | 0 mm | - | 356 W/m² | - |
| 1777822804 | 7.22° C | 52% | 1014.3 hPa | 0 mm | - | 204 W/m² | - |
| 1777822502 | 7.78° C | 51% | 1014.5 hPa | 0 mm | - | 421 W/m² | - |
| 1777822199 | 7.78° C | 51% | 1014.6 hPa | 0 mm | - | 212 W/m² | - |
| 1777821896 | 6.67° C | 52% | 1014.6 hPa | 0 mm | - | 429 W/m² | - |
| 1777821594 | 7.22° C | 53% | 1014.6 hPa | 0 mm | - | 512 W/m² | - |
| 1777821292 | 7.78° C | 51% | 1014.5 hPa | 0 mm | - | 106 W/m² | - |
| 1777820989 | 7.22° C | 50% | 1014.8 hPa | 0 mm | - | 497 W/m² | - |
| 1777820685 | 7.22° C | 50% | 1014.6 hPa | 0 mm | - | 648 W/m² | - |
| 1777820381 | 6.67° C | 53% | 1014.6 hPa | 0 mm | - | 597 W/m² | - |
| 1777820079 | 6.67° C | 55% | 1014.5 hPa | 0 mm | - | 636 W/m² | - |
* Rain latest hour (hover to see other rain measurements)
** Current wind speed in m/s (hover to see current wind gust speed)